Regional Weather Roundup
Issued by NWS

Home | Current Version | Previous Version | Graphics & Text | Print | Product List | Glossary On
Versions: 1 2 3 4 5 6 7 8 9 10 11 12 13 14 15 16 17 18 19 20 21 22 23 24 25 26 27
000
ASUS45 KTFX 230010
RWRMT
MONTANA REGIONAL WEATHER ROUNDUP
NATIONAL WEATHER SERVICE GREAT FALLS MT
600 PM MDT TUE MAY 22 2018

NOTE: "FAIR" INDICATES FEW OR NO CLOUDS BELOW 12000 FEET WITH NO
SIGNIFICANT WEATHER AND/OR OBSTRUCTIONS TO VISIBILITY.

MTZ001>007-043-230100-
WEST OF THE DIVIDE

CITY           SKY/WX    TMP DP  RH WIND       PRES   REMARKS
KALISPELL      FAIR      76  47  35 S17       29.88S
MISSOULA       PTSUNNY   71  46  40 E18       29.89S
BUTTE          LGT RAIN  55  49  80 SW3       30.07R
MULLAN PASS    FAIR      64  39  39 VRB3      30.02S
ANACONDA         N/A     61  48  63 SE6       30.03R
DEER LODGE       N/A     63  46  55 NE9       30.03R
HAMILTON         N/A     64  48  55 S16G22    29.94S
PLAINS           N/A     76  49  38 E5        29.89S
RONAN            N/A     77  43  29 CALM      29.91F
$$

MTZ008-052>055-230100-
SOUTHWEST MONTANA

CITY           SKY/WX    TMP DP  RH WIND       PRES   REMARKS
BOZEMAN        FAIR      65  52  62 NE10      29.98S
DILLON         FAIR      58  47  66 N13       29.99R
ENNIS          CLOUDY    61  46  59 N28G37    30.01R
W YELLOWSTONE  FAIR      59  37  44 CALM      30.02S
$$

MTZ009-010-012-014-046-048-049-054-230100-
EAST SLOPES AND CENTRAL MONTANA

CITY           SKY/WX    TMP DP  RH WIND       PRES   REMARKS
CUT BANK       FAIR      72  42  34 SE15      29.98F
GREAT FALLS    FAIR      71  48  43 S7        29.98F
MALMSTROM AFB  FAIR      69  47  46 S5        29.98F
HELENA         FAIR      69  49  48 N6        29.98F
CHOTEAU          N/A     66  46  48 SW3       30.02S
WHITE SULPHUR    N/A     55  48  76 NW9       30.02F
$$

MTZ011-013-016-021-045-047-050-051-230100-
NORTH CENTRAL MONTANA

CITY           SKY/WX    TMP DP  RH WIND       PRES   REMARKS
HAVRE          FAIR      73  51  46 SW17      29.92S
LEWISTOWN      FAIR      63  49  60 N8        30.01S
N BAR RANCH    PTSUNNY   64  48  55 N7        30.04S
CHINOOK          N/A     79  43  27 N6        29.91S
$$

MTZ017>020-022>027-061-062-230100-
NORTHEAST MONTANA

CITY           SKY/WX    TMP DP  RH WIND       PRES   REMARKS
GLASGOW        PTSUNNY   73  47  39 NE14      29.91F
GLENDIVE       FAIR      75  55  49 NE3       29.93S
JORDAN           N/A     69  58  67 W5        29.92F
MALTA          MOSUNNY   81  46  30 SW5       29.88S
SIDNEY         FAIR      76  54  46 N5        29.91R
WOLF POINT     FAIR      79  50  36 NW13      29.91R
PLENTYWOOD       N/A     79  46  31 N7        29.92R
POPLAR           N/A     77  52  41 W3        29.91R
$$

MTZ028>42-056>058-230100-
SOUTHCENTRAL AND SOUTHEAST MONTANA

CITY           SKY/WX    TMP DP  RH WIND       PRES   REMARKS
BAKER          FAIR      75  56  51 SW6       29.93R
BILLINGS       FAIR      72  55  55 NE18G24   29.93F
LIVINGSTON     TSTM      58  53  84 NW17      30.00R
MILES CITY     FAIR      77  57  50 CALM      29.90S
BIG TIMBER     MOSUNNY   59  54  82 N15       30.01R
FORSYTH          N/A     75  52  43 NW3       29.90F
LAUREL           N/A     72  54  53 NE20      29.93S
$$

REGIONAL REPORTS...DAKOTAS

CITY           SKY/WX    TMP DP  RH WIND       PRES   REMARKS
WILLISTON      CLOUDY    78  48  34 NE6       29.90S
MINOT          CLOUDY    81  49  32 W5        29.88R
DICKINSON      FAIR      80  48  32 CALM      29.88S
BEACH          CLOUDY    77  50  38 CALM      29.94S
CROSBY         FAIR      66  52  59 NW12      29.92F
TIOGA          CLOUDY    77  45  31 NW7       29.93S
WATFORD CITY   FAIR      73  55  53 N9        29.90R
BISMARCK       FAIR      80  60  50 SE8       29.88F
GRAND FORKS    PTSUNNY   81  54  39 SE10      29.92S
FARGO          FAIR      82  48  30 S7        29.93F
BUFFALO SD       N/A     75  56  51 E9        29.86S
RAPID CITY     FAIR      75  61  61 NE7       29.91F
$$

REGIONAL REPORTS...WYOMING/IDAHO/WASHINGTON

CITY           SKY/WX    TMP DP  RH WIND       PRES   REMARKS
GILLETTE       FAIR      73  51  46 NE13      29.94R
SHERIDAN       FAIR      68  56  65 SE6       29.95R
BUFFALO WY     FAIR      65  47  52 NW9       29.99S
CODY           FAIR      67  47  48 N10       29.98R
YELLOWSTONE LA   N/A     52  35  52 CALM      30.09F
IDAHO FALLS    PTSUNNY   69  44  40 SE21G31   29.92R
SALMON         FAIR      68  49  50 N6        29.92S
BOISE          FAIR      79  50  36 N6        29.79F
SPOKANE        FAIR      84  41  21 N9        29.83F
$$

REGIONAL REPORTS...ALBERTA

CITY           SKY/WX    TMP DP  RH WIND       PRES   REMARKS
CALGARY        MOSUNNY   77  37  24 S10       29.96S
EDMONTON       SUNNY     81  41  24 E5        29.91S
FORT MCMURRAY  SUNNY     86  37  17 SW15      29.80F
HIGH LEVEL     MOSUNNY   82  43  24 S5        29.71S
LETHBRIDGE     MOSUNNY   79  41  25 E9        29.93F
LLOYDMINSTER   MOSUNNY   79  41  25 SE6       29.91F
MEDICINE HAT   MOSUNNY   79  39  24 N13       29.90F
MILK RIVER       N/A     77  43  29 E9          N/A
ONEFOUR          N/A     77  36  22 N9          N/A
PEACE RIVER    PTSUNNY   81  43  26 SW8G18    29.83F
PINCHER CREEK    N/A     73  41  31 E16       29.97S
$$

REGIONAL REPORTS...SASKATCHEWAN

CITY           SKY/WX    TMP DP  RH WIND       PRES   REMARKS
CORONACH         N/A     68  46  45 W15         N/A
ESTEVAN        LGT RAIN  64  54  68 W14       29.93R
PRINCE ALBERT  PTSUNNY   81  50  34 E9        29.91S
REGINA         PTSUNNY   70  52  52 SE16G30   29.90R
ROCKGLEN         N/A     73  45  35 S14         N/A
SASKATOON      PTSUNNY   81  39  22 E6        29.91S
SWIFT CURRENT  SUNNY     79  39  24 N12       29.92R
VAL MARIE        N/A     79  37  22 N8          N/A
$$




USA.gov is the U.S. government's official web portal to all federal, state and local government web resources and services.